Location: �mondeville
(49.4591°N, 1.3431°W)
Time: 12:11:04
(UTC+00:00)

Helios 1A Rocket - Pass Details

Date: 22 October 2019
Orbit: 565 x 586 km, 98.3° (Epoch: 14 November)

Event Time Altitude Azimuth Distance (km) Brightness Sun altitude
Rises 05:20:56 0° 17° (NNE) 2,829 6.7 -13.0°
Reaches altitude 10° 05:23:08 10° 22° (NNE) 1,924 5.8 -12.6°
Maximum altitude 05:27:15 56° 101° (ESE) 706 3.8 -12.0°
Drops below altitude 10° 05:31:19 10° 180° (S) 1,906 5.6 -11.3°
Sets 05:33:29 0° 185° (S) 2,800 6.4 -11.0°
